Asheboro, NC

2:08 AM EDT on September 20, 2017 (GMT -0400)
Asheboro Municipal

Weather History for KHBI - January, 2013

Change the Weather History Date:

Tuesday, January 8, 2013

  Actual Average Record
Temperature  
Mean Temperature 42 °F -  
Max Temperature 55 °F 48 °F 69 °F (2007)
Min Temperature 28 °F 30 °F 7 °F (1970)
Degree Days  
Heating Degree Days 24    
Moisture  
Dew Point 34 °F    
Average Humidity 74    
Maximum Humidity 94    
Minimum Humidity 50    
Precipitation  
Precipitation 0.00 in - - ()
Sea Level Pressure  
Sea Level Pressure 30.42 in    
Wind  
Wind Speed 0 mph (East)    
Max Wind Speed 5 mph    
Max Gust Speed -    
Visibility 10 miles    
Events      
Averages and records for this station are not official NWS values.
T = Trace of Precipitation, MM = Missing Value Source: NWS Daily Summary

Daily Weather History Graph

Daily Weather History Graph

Search for Another Location

Airport or City:

Trip Planner

Search our weather history database for the weather conditions in past years. The results will help you decide how hot, cold, wet, or windy it might be!

Date:

Astronomy

Jan. 08, 2013 Rise Set
Actual Time 7:29 AM EST 5:23 PM EST
Civil Twilight 7:01 AM EST 5:51 PM EST
Nautical Twilight 6:30 AM EST 6:23 PM EST
Astronomical Twilight 5:59 AM EST 6:53 PM EST
Moon 4:01 AM EST (1/8) 2:23 PM EST (1/8)
Length of Visible Light 10h 49m
Length of Day
9h 53m
Waning Crescent, 14% of the Moon is Illuminated
Jan 8
Waning Crescent
Jan 11
New
Jan 18
First Quarter
Jan 26
Full
Feb 3
Last Quarter

Hourly Weather History & Observations

Time (EST) Temp. Windchill Dew Point Humidity Pressure Visibility Wind Dir Wind Speed Gust Speed Precip Events Conditions
12:15 AM 32.2 °F - 28.0 °F 85% 30.44 in 10.0 mi Calm Calm - N/A   Clear
12:35 AM 31.1 °F - 27.7 °F 87% 30.44 in 10.0 mi Calm Calm - N/A   Clear
12:55 AM 31.3 °F - 27.9 °F 87% 30.44 in 10.0 mi Calm Calm - N/A   Clear
1:15 AM 30.9 °F - 28.2 °F 90% 30.44 in 10.0 mi Calm Calm - N/A   Clear
1:35 AM 30.7 °F - 27.5 °F 88% 30.44 in 10.0 mi Calm Calm - N/A   Clear
1:55 AM 29.8 °F - 27.9 °F 92% 30.43 in 10.0 mi Calm Calm - N/A   Clear
2:15 AM 30.7 °F - 28.4 °F 91% 30.43 in 10.0 mi Calm Calm - N/A   Clear
2:35 AM 29.5 °F - 27.7 °F 93% 30.43 in 10.0 mi Calm Calm - N/A   Clear
2:55 AM 29.8 °F - 28.4 °F 94% 30.42 in 10.0 mi Calm Calm - N/A   Clear
3:15 AM 29.5 °F - 28.0 °F 94% 30.43 in 10.0 mi Calm Calm - N/A   Clear
3:35 AM 28.2 °F - 26.6 °F 94% 30.42 in 10.0 mi Calm Calm - N/A   Clear
3:55 AM 29.1 °F - 27.7 °F 94% 30.42 in 10.0 mi Calm Calm - N/A   Scattered Clouds
4:15 AM 30.7 °F - 28.6 °F 92% 30.43 in 10.0 mi Calm Calm - N/A   Overcast
4:35 AM 30.9 °F - 29.1 °F 93% 30.41 in 10.0 mi Calm Calm - N/A   Overcast
4:55 AM 30.9 °F - 28.8 °F 92% 30.41 in 10.0 mi Calm Calm - N/A   Mostly Cloudy
5:15 AM 30.9 °F 27.5 °F 28.8 °F 92% 30.40 in 10.0 mi NNW 3.5 mph - N/A   Overcast
5:35 AM 31.5 °F - 29.1 °F 91% 30.41 in 10.0 mi Calm Calm - N/A   Scattered Clouds
5:55 AM 31.5 °F - 29.3 °F 92% 30.43 in 10.0 mi Calm Calm - N/A   Scattered Clouds
6:15 AM 31.8 °F - 30.0 °F 93% 30.43 in 10.0 mi Calm Calm - N/A   Overcast
6:35 AM 32.0 °F - 30.6 °F 94% 30.42 in 10.0 mi Calm Calm - N/A   Overcast
6:55 AM 32.4 °F - 30.9 °F 94% 30.43 in 10.0 mi Calm Calm - N/A   Overcast
7:15 AM 34.0 °F - 32.0 °F 92% 30.43 in 10.0 mi Calm Calm - N/A   Overcast
7:35 AM 34.3 °F - 32.0 °F 91% 30.45 in 10.0 mi Calm Calm - N/A   Overcast
7:55 AM 34.0 °F - 32.0 °F 92% 30.46 in 10.0 mi Calm Calm - N/A   Overcast
8:15 AM 34.2 °F - 31.5 °F 90% 30.46 in 10.0 mi Calm Calm - N/A   Overcast
8:35 AM 34.3 °F - 31.3 °F 89% 30.47 in 10.0 mi Calm Calm - N/A   Overcast
8:55 AM 34.7 °F - 31.3 °F 87% 30.47 in 10.0 mi Calm Calm - N/A   Overcast
9:15 AM 35.8 °F - 31.8 °F 86% 30.48 in 10.0 mi Calm Calm - N/A   Overcast
9:35 AM 37.4 °F - 32.5 °F 83% 30.48 in 10.0 mi Calm Calm - N/A   Overcast
10:15 AM 40.6 °F - 34.9 °F 80% 30.48 in 10.0 mi Calm Calm - N/A   Overcast
10:35 AM 43.9 °F - 34.7 °F 70% 30.48 in 10.0 mi Calm Calm - N/A   Overcast
10:55 AM 46.0 °F - 34.0 °F 63% 30.47 in 10.0 mi Calm Calm - N/A   Scattered Clouds
11:15 AM 46.9 °F - 32.9 °F 58% 30.45 in 10.0 mi East 4.6 mph - N/A   Clear
11:35 AM 47.8 °F - 32.4 °F 55% 30.45 in 10.0 mi Calm Calm - N/A   Scattered Clouds
11:55 AM 49.1 °F - 32.7 °F 53% 30.44 in 10.0 mi Calm Calm - N/A   Mostly Cloudy
12:15 PM 50.7 °F - 33.3 °F 51% 30.43 in 10.0 mi Calm Calm - N/A   Scattered Clouds
12:55 PM 51.8 °F - 33.8 °F 50% 30.41 in 10.0 mi Calm Calm - N/A   Scattered Clouds
1:15 PM 52.7 °F - 34.9 °F 51% 30.41 in 10.0 mi Calm Calm - N/A   Scattered Clouds
1:35 PM 53.6 °F - 35.2 °F 50% 30.40 in 10.0 mi Calm Calm - N/A   Mostly Cloudy
1:55 PM 54.0 °F - 36.1 °F 51% 30.39 in 10.0 mi NW 3.5 mph - N/A   Scattered Clouds
2:15 PM 54.0 °F - 36.7 °F 52% 30.39 in 10.0 mi Calm Calm - N/A   Scattered Clouds
2:55 PM 54.9 °F - 37.4 °F 52% 30.38 in 10.0 mi Calm Calm - N/A   Mostly Cloudy
3:15 PM 55.0 °F - 37.4 °F 51% 30.38 in 10.0 mi Calm Calm - N/A   Mostly Cloudy
3:35 PM 54.9 °F - 37.8 °F 53% 30.39 in 10.0 mi Calm Calm - N/A   Overcast
3:55 PM 54.7 °F - 38.1 °F 54% 30.39 in 10.0 mi NW 3.5 mph - N/A   Overcast
4:15 PM 54.7 °F - 38.3 °F 54% 30.39 in 10.0 mi Calm Calm - N/A   Overcast
4:35 PM 54.7 °F - 38.8 °F 55% 30.39 in 10.0 mi Calm Calm - N/A   Overcast
4:55 PM 53.8 °F - 40.6 °F 61% 30.39 in 10.0 mi Calm Calm - N/A   Mostly Cloudy
5:15 PM 51.8 °F - 40.6 °F 66% 30.40 in 10.0 mi Calm Calm - N/A   Mostly Cloudy
5:35 PM 51.6 °F - 40.1 °F 65% 30.40 in 10.0 mi Calm Calm - N/A   Overcast
5:55 PM 50.5 °F - 41.5 °F 71% 30.39 in 10.0 mi Calm Calm - N/A   Overcast
6:15 PM 50.5 °F - 40.1 °F 67% 30.39 in 10.0 mi Calm Calm - N/A   Mostly Cloudy
6:35 PM 49.8 °F - 40.5 °F 70% 30.40 in 10.0 mi Calm Calm - N/A   Mostly Cloudy
6:55 PM 50.2 °F - 40.5 °F 69% 30.41 in 10.0 mi Calm Calm - N/A   Overcast
7:35 PM 49.8 °F - 41.0 °F 72% 30.41 in 10.0 mi Calm Calm - N/A   Overcast
7:55 PM 51.3 °F - 40.3 °F 66% 30.41 in 10.0 mi Calm Calm - N/A   Overcast
8:15 PM 51.4 °F - 40.5 °F 66% 30.41 in 10.0 mi Calm Calm - N/A   Overcast
8:35 PM 51.8 °F - 40.5 °F 65% 30.41 in 10.0 mi SE 3.5 mph - N/A   Overcast
8:55 PM 51.4 °F - 40.1 °F 65% 30.42 in 10.0 mi SSE 3.5 mph - N/A   Overcast
9:15 PM 51.1 °F - 40.1 °F 66% 30.42 in 10.0 mi Calm Calm - N/A   Overcast
9:35 PM 51.1 °F - 40.1 °F 66% 30.42 in 10.0 mi Calm Calm - N/A   Overcast
9:55 PM 50.5 °F - 39.7 °F 66% 30.41 in 10.0 mi SSE 3.5 mph - N/A   Mostly Cloudy
10:15 PM 50.4 °F - 40.1 °F 68% 30.41 in 10.0 mi Calm Calm - N/A   Mostly Cloudy
10:35 PM 50.7 °F - 40.1 °F 67% 30.41 in 10.0 mi Calm Calm - N/A   Overcast
10:55 PM 49.5 °F - 40.5 °F 71% 30.42 in 10.0 mi Calm Calm - N/A   Overcast
11:15 PM 50.0 °F - 40.6 °F 70% 30.42 in 10.0 mi Calm Calm - N/A   Overcast
11:35 PM 48.6 °F - 40.6 °F 74% 30.42 in 10.0 mi Calm Calm - N/A   Mostly Cloudy
11:55 PM 48.0 °F - 40.5 °F 75% 30.42 in 10.0 mi Calm Calm - N/A   Mostly Cloudy